Date String (YYYY-MM-DD hh:mm:ss) UTC,Instrument flags,Ambient pressure (hPa),Sample flow (lpm),Bypass flow (lpm),Sample temperature (°C),Ambient temperature (°C),ASC tube jacket temperature (°C),LED temperature (°C),Box temperature (°C),Sample RH (%),Span deviation,Mass concentration (μg/m³),Mass concentration (μg/m³),Mass concentration (μg/m³)
DateTimeUTC,F1_M11,P_M11,Q1_M11,Q2_M11,T1_M11,T2_M11,T3_M11,T4_M11,T5_M11,U1_M11,ZSPAN_M11,X2_M11,X0_M11,X1_M11
2023-03-12 23:00:00,,0824.5,5.00,0.00,22.6,21.1,00.0,31.3,24.4,13.3,-001.2,0005.81,0010.94,0005.39
2023-03-12 23:01:00,,0824.5,4.99,0.00,22.6,21.1,00.0,31.3,24.4,13.4,-001.4,0005.82,0010.65,0005.40
2023-03-12 23:02:00,,0824.4,5.00,0.00,22.6,21.1,00.0,31.3,24.4,13.4,-001.4,0005.88,0010.50,0005.43
2023-03-12 23:03:00,,0824.4,5.00,0.00,22.6,21.1,00.0,31.3,24.4,13.4,-001.1,0005.90,0009.61,0005.44
2023-03-12 23:04:00,,0824.4,5.01,0.00,22.6,21.2,00.0,31.3,24.4,13.5,-001.3,0005.92,0009.64,0005.46
2023-03-12 23:05:00,,0824.4,5.01,0.00,22.6,21.1,00.0,31.3,24.4,13.4,-001.6,0005.90,0009.55,0005.48
2023-03-12 23:06:00,,0824.5,4.99,0.00,22.6,21.0,00.0,31.3,24.4,13.4,-001.8,0005.91,0009.45,0005.49
2023-03-12 23:07:00,,0824.4,5.00,0.00,22.6,21.0,00.0,31.3,24.4,13.4,-001.7,0005.93,0009.74,0005.49
2023-03-12 23:08:00,,0824.4,5.01,0.00,22.6,21.0,00.0,31.3,24.4,13.4,-001.4,0005.97,0010.36,0005.50
2023-03-12 23:09:00,,0824.4,5.00,0.00,22.6,21.0,00.0,31.3,24.4,13.4,-000.9,0005.99,0010.19,0005.51
2023-03-12 23:10:00,,0824.4,5.01,0.00,22.6,21.0,00.0,31.3,24.4,13.4,-001.1,0006.01,0010.17,0005.54
2023-03-12 23:11:00,,0824.4,5.00,0.00,22.6,21.1,00.0,31.3,24.4,13.4,-001.1,0006.00,0010.15,0005.55
2023-03-12 23:12:00,,0824.4,4.98,0.00,22.5,21.1,00.0,31.3,24.3,13.4,-000.8,0006.03,0010.17,0005.55
2023-03-12 23:13:00,,0824.5,4.99,0.00,22.5,21.0,00.0,31.3,24.3,13.4,-001.0,0006.05,0010.20,0005.56
2023-03-12 23:14:00,,0824.5,5.00,0.00,22.5,21.0,00.0,31.3,24.3,13.4,-001.6,0006.07,0010.26,0005.57
2023-03-12 23:15:00,,0824.5,4.99,0.00,22.5,21.0,00.0,31.3,24.4,13.4,-001.2,0006.04,0010.25,0005.56
2023-03-12 23:16:00,,0824.5,4.99,0.00,22.5,21.0,00.0,31.3,24.3,13.4,-001.2,0006.05,0010.31,0005.56
2023-03-12 23:17:00,,0824.4,5.00,0.00,22.5,21.0,00.0,31.3,24.3,13.4,-001.2,0006.05,0010.34,0005.55
2023-03-12 23:18:00,,0824.4,4.99,0.00,22.5,21.0,00.0,31.3,24.3,13.5,-001.3,0006.05,0010.43,0005.54
2023-03-12 23:19:00,,0824.5,4.99,0.00,22.5,21.0,00.0,31.3,24.3,13.5,-001.5,0006.05,0010.61,0005.54
2023-03-12 23:20:00,,0824.5,4.99,0.00,22.5,21.0,00.0,31.3,24.3,13.5,-001.6,0006.06,0011.67,0005.54
2023-03-12 23:21:00,,0824.5,5.00,0.00,22.5,21.0,00.0,31.3,24.3,13.5,-001.1,0006.05,0011.68,0005.54
2023-03-12 23:22:00,,0824.5,5.00,0.00,22.5,21.0,00.0,31.3,24.3,13.5,-001.0,0006.07,0011.73,0005.54
2023-03-12 23:23:00,,0824.5,5.00,0.00,22.5,21.1,00.0,31.3,24.4,13.5,-001.3,0006.04,0012.32,0005.53
2023-03-12 23:24:00,,0824.4,5.00,0.00,22.5,21.1,00.0,31.3,24.4,13.5,-000.9,0006.00,0012.42,0005.51
2023-03-12 23:25:00,,0824.4,5.01,0.00,22.5,21.1,00.0,31.3,24.3,13.5,-001.1,0005.99,0013.08,0005.51
2023-03-12 23:26:00,,0824.4,4.99,0.00,22.5,21.1,00.0,31.3,24.4,13.5,-001.6,0005.98,0012.93,0005.51
2023-03-12 23:27:00,,0824.4,5.00,0.00,22.5,21.1,00.0,31.3,24.4,13.6,-001.3,0005.97,0012.87,0005.52
2023-03-12 23:28:00,,0824.6,5.00,0.00,22.5,21.1,00.0,31.3,24.4,13.6,-001.1,0005.95,0012.92,0005.51
2023-03-12 23:29:00,,0824.4,5.00,0.00,22.5,21.1,00.0,31.3,24.4,13.6,-001.3,0005.96,0012.69,0005.51
2023-03-12 23:30:00,,0824.8,5.00,0.00,22.5,21.1,00.0,31.3,24.4,13.6,-001.3,0005.93,0011.73,0005.52
2023-03-12 23:31:00,,0824.5,5.00,0.00,22.5,21.1,00.0,31.3,24.4,13.6,-001.2,0005.95,0010.82,0005.54
2023-03-12 23:32:00,,0824.5,5.01,0.00,22.5,21.1,00.0,31.3,24.4,13.7,-001.1,0005.96,0010.99,0005.53
2023-03-12 23:33:00,,0824.7,5.00,0.00,22.5,21.1,00.0,31.3,24.4,13.7,-001.0,0005.93,0010.90,0005.51
2023-03-12 23:34:00,,0824.9,4.99,0.00,22.6,21.2,00.0,31.3,24.4,13.7,-001.1,0005.95,0010.26,0005.52
2023-03-12 23:35:00,,0824.6,5.00,0.00,22.6,21.2,00.0,31.3,24.4,13.7,-000.8,0005.95,0010.15,0005.53
2023-03-12 23:36:00,,0824.7,5.00,0.00,22.6,21.2,00.0,31.3,24.4,13.7,-000.1,0005.92,0009.34,0005.53
2023-03-12 23:37:00,,0824.6,5.01,0.00,22.6,21.2,00.0,31.3,24.4,13.7,0000.4,0005.95,0009.39,0005.54
2023-03-12 23:38:00,,0824.6,4.99,0.00,22.6,21.2,00.0,31.3,24.4,13.7,0000.5,0005.94,0009.50,0005.54
2023-03-12 23:39:00,,0824.6,5.00,0.00,22.6,21.3,00.0,31.3,24.5,13.7,0000.0,0005.95,0009.50,0005.56
2023-03-12 23:40:00,,0824.6,5.00,0.00,22.6,21.2,00.0,31.3,24.5,13.7,0000.0,0005.96,0009.44,0005.58
2023-03-12 23:41:00,,0824.7,4.99,0.00,22.6,21.2,00.0,31.3,24.5,13.8,0000.1,0005.98,0009.67,0005.60
2023-03-12 23:42:00,,0824.7,5.01,0.00,22.6,21.2,00.0,31.3,24.5,13.8,0000.9,0005.96,0009.88,0005.60
2023-03-12 23:43:00,,0824.6,5.00,0.00,22.6,21.2,00.0,31.3,24.5,13.8,0000.8,0005.99,0009.73,0005.61
2023-03-12 23:44:00,,0824.7,5.02,0.00,22.6,21.2,00.0,31.3,24.5,13.8,0001.3,0005.99,0009.70,0005.63
2023-03-12 23:45:00,,0824.6,5.00,0.00,22.6,21.2,00.0,31.3,24.5,13.8,0001.7,0006.00,0009.70,0005.64
2023-03-12 23:46:00,,0824.6,5.00,0.00,22.6,21.2,00.0,31.3,24.5,13.8,0000.8,0006.02,0009.62,0005.66
2023-03-12 23:47:00,,0824.6,5.01,0.00,22.6,21.2,00.0,31.3,24.5,13.9,0000.4,0006.05,0009.73,0005.65
2023-03-12 23:48:00,,0824.6,5.01,0.00,22.6,21.2,00.0,31.3,24.5,13.9,0000.5,0006.06,0009.90,0005.65
2023-03-12 23:49:00,,0824.6,4.98,0.00,22.6,21.2,00.0,31.3,24.5,13.9,0000.5,0006.09,0010.31,0005.64
2023-03-12 23:50:00,,0824.7,4.99,0.00,22.6,21.2,00.0,31.3,24.5,14.0,0000.2,0006.12,0010.50,0005.63
2023-03-12 23:51:00,,0824.6,5.00,0.00,22.6,21.2,00.0,31.3,24.5,14.0,0000.5,0006.11,0010.99,0005.62
2023-03-12 23:52:00,,0824.6,4.99,0.00,22.6,21.2,00.0,31.3,24.5,14.0,0002.0,0006.11,0010.97,0005.61
2023-03-12 23:53:00,,0824.7,5.01,0.00,22.6,21.2,00.0,31.3,24.5,14.0,0002.0,0006.12,0010.64,0005.61
2023-03-12 23:54:00,,0824.7,5.00,0.00,22.6,21.2,00.0,31.3,24.5,14.0,0001.3,0006.11,0011.93,0005.61
2023-03-12 23:55:00,,0824.7,4.99,0.00,22.6,21.2,00.0,31.3,24.5,14.0,0000.0,0006.14,0013.64,0005.61
2023-03-12 23:56:00,,0824.8,5.02,0.00,22.6,21.2,00.0,31.3,24.4,14.1,0000.3,0006.12,0014.38,0005.60
2023-03-12 23:57:00,,0824.8,4.98,0.00,22.6,21.2,00.0,31.3,24.5,14.1,0000.9,0006.12,0015.30,0005.59
2023-03-12 23:58:00,,0824.8,5.00,0.00,22.6,21.2,00.0,31.3,24.4,14.2,0000.5,0006.08,0015.22,0005.59
2023-03-12 23:59:00,,0824.9,4.99,0.00,22.6,21.2,00.0,31.3,24.5,14.1,0000.7,0006.05,0015.10,0005.58
